Weather History for Palmdale, CA

Change the Weather History Date:

Sunday, August 4, 2013

  Actual Average Record
Temperature  
Mean Temperature 80 °F 83 °F  
Max Temperature 94 °F 99 °F 109 °F (1990)
Min Temperature 65 °F 67 °F 51 °F (1953)
Degree Days  
Heating Degree Days 0 0  
Month to date heating degree days 0 0  
Since 1 June heating degree days 0 7  
Since 1 July heating degree days 0 0  
Cooling Degree Days 15 18  
Month to date cooling degree days 54 72  
Year to date cooling degree days 1319 1050  
Since 1 June cooling degree days 1088 880  
Growing Degree Days 30 (Base 50)    
Moisture  
Dew Point 19 °F    
Average Humidity 15    
Maximum Humidity 28    
Minimum Humidity 1    
Precipitation  
Precipitation 0.00 in 0.00 in 0.10 in (1961)
Month to date precipitation 0.00 0.01  
Year to date precipitation 0.95 5.43  
Since 1 July precipitation 0.09 0.11  
Snow  
Snow 0.00 in - 0.00 in (1973)
Month to date snowfall 0.0  
Since 1 June snowfall 0.0  
Since 1 July snowfall 0.0  
Snow Depth 0.00 in    
Sea Level Pressure  
Sea Level Pressure 29.90 in    
Wind  
Wind Speed 11 mph (SW)    
Max Wind Speed 28 mph    
Max Gust Speed 33 mph    
Visibility 10 miles    
Events      
T = Trace of Precipitation, MM = Missing Value Source: NWS Daily Summary

Daily Weather History Graph

Daily Weather History Graph

Search for Another Location

Airport:

Trip Planner

Search our weather history database for the weather conditions in past years. The results will help you decide how hot, cold, wet, or windy it might be!

Date:

Astronomy

Aug. 04, 2013 Rise Set
Actual Time 6:04 AM PDT 7:51 PM PDT
Civil Twilight 5:37 AM PDT 8:18 PM PDT
Nautical Twilight 5:04 AM PDT 8:51 PM PDT
Astronomical Twilight 4:29 AM PDT 9:26 PM PDT
Moon 4:10 AM PDT (8/4) 6:17 PM PDT (8/4)
Length of Visible Light 14h 41m
Length of Day
13h 46m
Waning Crescent, 4% of the Moon is Illuminated
Aug 4
Waning Crescent
Aug 6
New
Aug 14
First Quarter
Aug 20
Full
Aug 28
Last Quarter

Hourly Weather History & Observations

Time (PDT) Temp. Dew Point Humidity Pressure Visibility Wind Dir Wind Speed Gust Speed Precip Events Conditions
12:53 AM 72.0 °F 27.0 °F 19% 29.90 in 10.0 mi SSW 12.7 mph - N/A   Clear
1:53 AM 72.0 °F 18.0 °F 13% 29.90 in 10.0 mi SW 11.5 mph - N/A   Clear
2:53 AM 68.0 °F 17.1 °F 14% 29.89 in 10.0 mi SSW 11.5 mph - N/A   Clear
3:53 AM 69.1 °F 15.1 °F 13% 29.89 in 10.0 mi SW 5.8 mph - N/A   Clear
4:53 AM 69.1 °F 19.9 °F 15% 29.90 in 10.0 mi South 10.4 mph - N/A   Clear
5:53 AM 66.9 °F 32.0 °F 27% 29.91 in 10.0 mi South 8.1 mph - N/A   Clear
6:53 AM 70.0 °F 34.0 °F 27% 29.93 in 10.0 mi SSW 8.1 mph - N/A   Clear
7:53 AM 73.0 °F 34.0 °F 24% 29.94 in 10.0 mi Calm Calm - N/A   Clear
8:53 AM 80.1 °F 32.0 °F 17% 29.94 in 10.0 mi Calm Calm - N/A   Clear
9:53 AM 84.9 °F 30.0 °F 14% 29.94 in 10.0 mi Calm Calm - N/A   Clear
10:53 AM 87.1 °F 21.0 °F 9% 29.93 in 10.0 mi SW 10.4 mph - N/A   Clear
11:53 AM 91.9 °F -4.0 °F 4% 29.91 in 10.0 mi West 12.7 mph 18.4 mph N/A   Clear
12:53 PM 93.9 °F -14.1 °F 4% 29.91 in 10.0 mi West 11.5 mph 17.3 mph N/A   Clear
1:53 PM 91.0 °F 8.1 °F 4% 29.90 in 10.0 mi WSW 18.4 mph - N/A   Clear
2:53 PM 91.0 °F 19.0 °F 7% 29.88 in 10.0 mi SW 21.9 mph - N/A   Clear
3:53 PM 91.9 °F 18.0 °F 7% 29.87 in 10.0 mi West 19.6 mph 24.2 mph N/A   Clear
4:53 PM 91.9 °F 19.9 °F 7% 29.85 in 10.0 mi SW 25.3 mph 28.8 mph N/A   Clear
5:53 PM 90.0 °F 24.1 °F 9% 29.85 in 10.0 mi WSW 23.0 mph - N/A   Clear
6:53 PM 86.0 °F 32.0 °F 14% 29.88 in 10.0 mi WSW 18.4 mph - N/A   Clear
7:53 PM 82.0 °F 26.1 °F 13% 29.89 in 10.0 mi WSW 10.4 mph - N/A   Clear
8:53 PM 79.0 °F 17.1 °F 10% 29.91 in 10.0 mi WSW 10.4 mph - N/A   Clear
9:53 PM 75.9 °F 12.0 °F 9% 29.92 in 10.0 mi WSW 9.2 mph - N/A   Clear
10:53 PM 73.9 °F 15.1 °F 11% 29.93 in 10.0 mi WNW 4.6 mph - N/A   Clear
11:53 PM 72.0 °F 14.0 °F 11% 29.93 in 10.0 mi South 4.6 mph - N/A   Clear